FENGYUN 1C DEB

Satellite information

Favourite Embed

Satellite Type and Status

DEBRISIN ORBIT

Key statistics

Satellite FENGYUN 1C DEB at a glance.

Uptime

9556

Days in orbit

Revolutions

≈ 15.2

Per day

Orbit

SSO

Sun Synchronous Orbit

Inclination

98.8

Latest

Satellite identification and parameters

Extended collection of information and parameters for FENGYUN 1C DEB.

Object identification

Identified? True

Debris? True

Object name: FENGYUN 1C DEB

International designator: 1999-025AUA

Object number (NORAD): 30764

Object ID (CCSDS): 30764

Country: PEOPLES REPUBLIC OF CHINA (PRC)

Current information (Y/N): Y

RCS size: SMALL

Orbital parameters

Period: 94.881 minutes

Inclination: 98.7614 deg

SMA: 6890.942 km

Apoapsis: 578.403 km

Periapsis: 447.212 km

RAAN: 133.2783 deg

Eccentricy: 0.0095191

Argument of periapsis: 347.7533 deg

Mean anomaly: 12.1383 deg

Mean motion: 15.17696202 rev/day

Mean motion (dot): 0.00020049 rev/day2

B* drag term: 0.00088609 1/REarth

Two-line elements (TLE)

Creation date: July 8, 2025, 2:27 a.m.

Reference frame: TEME

Reference center: EARTH

Epoch: July 7, 2025, 6:46 p.m. UTC

TLE line 0: 0 FENGYUN 1C DEB

TLE line 1: 1 30764U 99025AUA 25188.78207738 .00020049 00000-0 88609-3 0 9990

TLE line 2: 2 30764 98.7614 133.2783 0095191 347.7533 12.1383 15.17696202988205

Live tracking on map

Real-time ground track for satellite FENGYUN 1C DEB.

In-orbit conjunctions

A list of the most updated potential collisions computed for object FENGYUN 1C DEB.

Target Orbit TCA Probability of collision Miss distance Type
COSMOS 2242 LEO 2025-04-20 01:20:50 0.0001401641 456.0 (m) PAYLOAD
CZ-6A DEB SSO 2024-11-13 06:11:50 0.0001887793 544.0 (m) DEBRIS

Associated space launch

Chinese polar orbiting meteorological satellite

FENGYUN 1C DEB was lifted into orbit during the mission ‘Long March 4B | Feng Yun 1C’, on board a Long March 4B space rocket.

The launch took place on May 10, 1999, 1:33 a.m. from Launch Complex 7.

For more information about the launch, click the button.

Launch to space Long March 4B | Feng Yun 1C
Long March 4B | Feng Yun 1C

Agency: N/A

Status: Launch Successful

Launch date: May 10, 1999, 1:33 a.m. UTC

Rocket: Long March 4B

Launch pad: Launch Complex 7

Location: Taiyuan Satellite Launch Center, People's Republic of China

...

Latest news about this satellite

There are no fresh news available about this satellite. Check back as we update our databases every day.


Newsletter sign-up

Weekly statistics, charts and insights to help you stay on top of the space industry.